| time (UTC) | temp C | wind direction | speed KPH | gust KPH | rain 1hr cm | rain 24hr cm | rain mn cm | humidity % | barometer mb |
| 20260506155825 | 18 | 354 | 0.0 | 6.4 | 0.00 | 0.00 | 0.00 | 83 | 1014.1 |
| 20260506155321 | 19 | 175 | 0.0 | 6.4 | 0.00 | 0.00 | 0.00 | 83 | 1013.5 |
| 20260506153433 | 20 | 262 | 1.6 | 8.0 | 0.00 | 0.00 | 0.00 | 82 | 1011.7 |
| 20260506152930 | 20 | 75 | 3.2 | 8.0 | 0.00 | 0.00 | 0.00 | 82 | 1011.8 |
| 20260506152427 | 21 | 82 | 1.6 | 8.0 | 0.00 | 0.00 | 0.00 | 81 | 1011.6 |
| 20260506151926 | 21 | 137 | 4.8 | 9.7 | 0.00 | 0.00 | 0.00 | 81 | 1011.3 |
| 20260506151422 | 22 | 130 | 3.2 | 6.4 | 0.00 | 0.00 | 0.00 | 79 | 1010.9 |
| 20260506150920 | 24 | 331 | 1.6 | 6.4 | 0.00 | 0.00 | 0.00 | 76 | 1011.0 |
| 20260506150416 | 25 | 52 | 0.0 | 3.2 | 0.00 | 0.00 | 0.00 | 83 | 1011.0 |
| 20260506145913 | 25 | 124 | 0.0 | 1.6 | 0.00 | 0.00 | 0.00 | 83 | 1010.6 |
| 20260506145409 | 25 | 119 | 0.0 | 3.2 | 0.00 | 0.00 | 0.00 | 83 | 1010.7 |
| 20260506144907 | 25 | 62 | 3.2 | 4.8 | 0.00 | 0.00 | 0.00 | 82 | 1010.3 |
| 20260506144403 | 25 | 73 | 3.2 | 4.8 | 0.00 | 0.00 | 0.00 | 83 | 1010.3 |
| 20260506143902 | 25 | 130 | 3.2 | 6.4 | 0.00 | 0.00 | 0.00 | 83 | 1010.0 |
| 20260506143358 | 25 | 130 | 1.6 | 3.2 | 0.00 | 0.00 | 0.00 | 83 | 1009.7 |
| 20260506142857 | 25 | 143 | 3.2 | 6.4 | 0.00 | 0.00 | 0.00 | 83 | 1010.0 |
| 20260506142354 | 25 | 118 | 1.6 | 4.8 | 0.00 | 0.00 | 0.00 | 83 | 1009.9 |
| 20260506141852 | 25 | 121 | 3.2 | 6.4 | 0.00 | 0.00 | 0.00 | 83 | 1009.5 |
| 20260506141350 | 25 | 144 | 4.8 | 4.8 | 0.00 | 0.00 | 0.00 | 84 | 1009.3 |
| 20260506140848 | 25 | 129 | 3.2 | 4.8 | 0.00 | 0.00 | 0.00 | 85 | 1009.3 |
| 20260506140344 | 25 | 81 | 3.2 | 3.2 | 0.00 | 0.00 | 0.00 | 86 | 1009.7 |
| 20260506135841 | 25 | 128 | 3.2 | 3.2 | 0.00 | 0.00 | 0.00 | 87 | 1009.6 |
| 20260506135338 | 25 | 131 | 3.2 | 3.2 | 0.00 | 0.00 | 0.00 | 88 | 1009.8 |
| 20260506134834 | 24 | 69 | 3.2 | 3.2 | 0.00 | 0.00 | 0.00 | 88 | 1009.7 |
| 20260506134331 | 24 | 149 | 3.2 | 3.2 | 0.00 | 0.00 | 0.00 | 87 | 1009.3 |
| 20260506133828 | 24 | 142 | 1.6 | 4.8 | 0.00 | 0.00 | 0.00 | 87 | 1009.2 |
| 20260506133325 | 25 | 129 | 0.0 | 3.2 | 0.00 | 0.00 | 0.00 | 87 | 1009.2 |
| 20260506132822 | 25 | 119 | 3.2 | 3.2 | 0.00 | 0.00 | 0.00 | 87 | 1009.1 |
| 20260506132319 | 24 | 113 | 1.6 | 3.2 | 0.00 | 0.00 | 0.00 | 87 | 1009.1 |
| 20260506131817 | 24 | 66 | 3.2 | 3.2 | 0.00 | 0.00 | 0.00 | 87 | 1009.3 |
| 20260506131313 | 24 | 124 | 3.2 | 3.2 | 0.00 | 0.00 | 0.00 | 88 | 1009.0 |
| 20260506130810 | 24 | 129 | 4.8 | 4.8 | 0.00 | 0.00 | 0.00 | 88 | 1009.0 |
| 20260506130306 | 24 | 111 | 1.6 | 4.8 | 0.00 | 0.00 | 0.00 | 88 | 1008.8 |
| 20260506125804 | 24 | 124 | 3.2 | 4.8 | 0.00 | 0.00 | 0.00 | 88 | 1008.7 |
| 20260506125305 | 23 | 47 | 3.2 | 3.2 | 0.00 | 0.00 | 0.00 | 89 | 1008.7 |
| 20260506124801 | 23 | 95 | 0.0 | 3.2 | 0.00 | 0.00 | 0.00 | 89 | 1008.7 |
| 20260506124257 | 23 | 128 | 3.2 | 4.8 | 0.00 | 0.00 | 0.00 | 90 | 1008.6 |
| 20260506123755 | 23 | 123 | 1.6 | 4.8 | 0.00 | 0.00 | 0.00 | 90 | 1008.3 |
| 20260506123253 | 23 | 125 | 3.2 | 4.8 | 0.00 | 0.00 | 0.00 | 91 | 1008.6 |
| 20260506122750 | 23 | 89 | 0.0 | 3.2 | 0.00 | 0.00 | 0.00 | 91 | 1008.4 |
| 20260506122247 | 23 | 143 | 3.2 | 3.2 | 0.00 | 0.00 | 0.00 | 91 | 1008.4 |
| 20260506121745 | 23 | 122 | 3.2 | 3.2 | 0.00 | 0.00 | 0.00 | 91 | 1008.5 |
| 20260506121242 | 23 | 132 | 1.6 | 3.2 | 0.00 | 0.00 | 0.00 | 91 | 1008.7 |
| 20260506120739 | 23 | 111 | 3.2 | 3.2 | 0.00 | 0.00 | 0.00 | 91 | 1008.6 |
| 20260506120237 | 23 | 122 | 0.0 | 1.6 | 0.00 | 0.00 | 0.00 | 91 | 1008.8 |
| 20260506115734 | 23 | 108 | 0.0 | 3.2 | 0.00 | 0.00 | 0.00 | 91 | 1008.7 |
| 20260506115232 | 23 | 93 | 0.0 | 3.2 | 0.00 | 0.00 | 0.00 | 91 | 1008.6 |
| 20260506114730 | 23 | 75 | 0.0 | 3.2 | 0.00 | 0.00 | 0.00 | 91 | 1008.6 |
| 20260506114227 | 23 | 84 | 1.6 | 3.2 | 0.00 | 0.00 | 0.00 | 91 | 1008.7 |
| 20260506113726 | 23 | 109 | 0.0 | 1.6 | 0.00 | 0.00 | 0.00 | 91 | 1008.7 |
| 20260506113223 | 23 | 122 | 0.0 | 1.6 | 0.00 | 0.00 | 0.00 | 91 | 1008.6 |
| 20260506112719 | 23 | 117 | 1.6 | 3.2 | 0.00 | 0.00 | 0.00 | 90 | 1008.6 |
| 20260506112217 | 23 | 81 | 1.6 | 3.2 | 0.00 | 0.00 | 0.00 | 90 | 1008.7 |
| 20260506111714 | 23 | 50 | 1.6 | 1.6 | 0.00 | 0.00 | 0.00 | 90 | 1008.7 |
| 20260506111212 | 23 | 84 | 0.0 | 1.6 | 0.00 | 0.00 | 0.00 | 90 | 1008.7 |
| 20260506110708 | 23 | 70 | 1.6 | 1.6 | 0.00 | 0.00 | 0.00 | 90 | 1008.8 |
| 20260506110206 | 23 | 93 | 0.0 | 1.6 | 0.00 | 0.00 | 0.00 | 90 | 1008.6 |
| 20260506105703 | 23 | 127 | 0.0 | 1.6 | 0.00 | 0.00 | 0.00 | 90 | 1008.6 |
| 20260506105159 | 23 | 133 | 1.6 | 3.2 | 0.00 | 0.00 | 0.00 | 89 | 1008.5 |
| 20260506104657 | 23 | 85 | 1.6 | 1.6 | 0.00 | 0.00 | 0.00 | 89 | 1008.6 |
| 20260506104155 | 23 | 67 | 1.6 | 3.2 | 0.00 | 0.00 | 0.00 | 89 | 1008.4 |
| 20260506103652 | 23 | 94 | 0.0 | 1.6 | 0.00 | 0.00 | 0.00 | 89 | 1008.4 |
| 20260506103149 | 23 | 75 | 0.0 | 1.6 | 0.00 | 0.00 | 0.00 | 89 | 1008.4 |
| 20260506102647 | 23 | 108 | 1.6 | 3.2 | 0.00 | 0.00 | 0.00 | 89 | 1008.3 |
| 20260506102144 | 23 | 67 | 1.6 | 1.6 | 0.00 | 0.00 | 0.00 | 89 | 1008.3 |
| 20260506101641 | 23 | 95 | 0.0 | 3.2 | 0.00 | 0.00 | 0.00 | 89 | 1008.2 |
| 20260506101138 | 23 | 76 | 0.0 | 1.6 | 0.00 | 0.00 | 0.00 | 89 | 1008.0 |
| 20260506100636 | 23 | 144 | 0.0 | 1.6 | 0.00 | 0.00 | 0.00 | 89 | 1008.2 |
| 20260506100134 | 23 | 98 | 3.2 | 3.2 | 0.00 | 0.00 | 0.00 | 89 | 1008.1 |
| 20260506095632 | 23 | 127 | 1.6 | 3.2 | 0.00 | 0.00 | 0.00 | 89 | 1008.0 |
| 20260506095128 | 23 | 180 | 0.0 | 3.2 | 0.00 | 0.00 | 0.00 | 89 | 1008.1 |
| 20260506094626 | 23 | 109 | 1.6 | 6.4 | 0.00 | 0.00 | 0.00 | 89 | 1008.0 |
| 20260506094124 | 23 | 154 | 3.2 | 6.4 | 0.00 | 0.00 | 0.00 | 89 | 1007.8 |
| 20260506093622 | 23 | 121 | 4.8 | 8.0 | 0.00 | 0.00 | 0.00 | 89 | 1007.9 |
| 20260506093119 | 23 | 136 | 3.2 | 8.0 | 0.00 | 0.00 | 0.00 | 89 | 1007.8 |
| 20260506092617 | 23 | 174 | 0.0 | 6.4 | 0.00 | 0.00 | 0.00 | 88 | 1007.6 |
| 20260506092114 | 24 | 89 | 0.0 | 6.4 | 0.00 | 0.00 | 0.00 | 88 | 1007.8 |
| 20260506091612 | 24 | 119 | 0.0 | 6.4 | 0.00 | 0.00 | 0.00 | 87 | 1007.4 |
| 20260506091109 | 24 | 192 | 3.2 | 6.4 | 0.00 | 0.00 | 0.00 | 87 | 1007.6 |
| 20260506090607 | 24 | 71 | 1.6 | 9.7 | 0.00 | 0.00 | 0.00 | 87 | 1007.4 |
| 20260506085600 | 24 | 174 | 1.6 | 9.7 | 0.00 | 0.00 | 0.00 | 87 | 1007.2 |
| 20260506085056 | 24 | 174 | 0.0 | 8.0 | 0.00 | 0.00 | 0.00 | 86 | 1007.2 |
| 20260506084553 | 24 | 135 | 4.8 | 4.8 | 0.00 | 0.00 | 0.00 | 86 | 1007.5 |
| 20260506084049 | 24 | 205 | 0.0 | 3.2 | 0.00 | 0.00 | 0.00 | 86 | 1007.3 |
| 20260506083546 | 24 | 186 | 4.8 | 6.4 | 0.00 | 0.00 | 0.00 | 86 | 1007.4 |
| 20260506083043 | 24 | 148 | 3.2 | 4.8 | 0.00 | 0.00 | 0.00 | 86 | 1007.2 |
| 20260506082540 | 24 | 76 | 0.0 | 3.2 | 0.00 | 0.00 | 0.00 | 86 | 1007.5 |
| 20260506082036 | 24 | 152 | 3.2 | 6.4 | 0.00 | 0.00 | 0.00 | 86 | 1007.4 |
| 20260506081534 | 24 | 162 | 6.4 | 9.7 | 0.00 | 0.00 | 0.00 | 86 | 1007.4 |
| 20260506081031 | 24 | 73 | 3.2 | 8.0 | 0.00 | 0.00 | 0.00 | 86 | 1007.5 |
| 20260506080529 | 24 | 164 | 1.6 | 8.0 | 0.00 | 0.00 | 0.00 | 86 | 1007.6 |
| 20260506073513 | 24 | 217 | 1.6 | 14.5 | 0.00 | 0.00 | 0.00 | 84 | 1007.8 |
| 20260506073010 | 24 | 124 | 9.7 | 9.7 | 0.00 | 0.00 | 0.00 | 84 | 1007.8 |
| 20260506072507 | 25 | 125 | 4.8 | 6.4 | 0.00 | 0.00 | 0.00 | 84 | 1007.8 |
| 20260506072004 | 24 | 126 | 4.8 | 11.3 | 0.00 | 0.00 | 0.00 | 84 | 1007.8 |
| 20260506071502 | 25 | 56 | 1.6 | 6.4 | 0.00 | 0.00 | 0.00 | 84 | 1007.8 |
| 20260506070959 | 24 | 200 | 3.2 | 9.7 | 0.00 | 0.00 | 0.00 | 84 | 1007.7 |
| 20260506070456 | 24 | 141 | 6.4 | 14.5 | 0.00 | 0.00 | 0.00 | 84 | 1007.8 |
| 20260506062433 | 24 | 198 | 3.2 | 9.7 | 0.00 | 0.00 | 0.00 | 86 | 1007.8 |
| 20260506061929 | 24 | 144 | 1.6 | 8.0 | 0.00 | 0.00 | 0.00 | 86 | 1007.9 |
| 20260506061426 | 24 | 59 | 3.2 | 4.8 | 0.00 | 0.00 | 0.00 | 86 | 1007.7 |
| 20260506060924 | 24 | 180 | 3.2 | 9.7 | 0.00 | 0.00 | 0.00 | 86 | 1007.9 |
| 20260506060422 | 24 | 145 | 6.4 | 8.0 | 0.00 | 0.00 | 0.00 | 85 | 1007.9 |
| 20260506051354 | 24 | 127 | 3.2 | 9.7 | 0.00 | 0.00 | 0.00 | 86 | 1007.6 |
| 20260506050851 | 24 | 128 | 3.2 | 4.8 | 0.00 | 0.00 | 0.00 | 86 | 1007.7 |
| 20260506050349 | 25 | 72 | 1.6 | 9.7 | 0.00 | 0.00 | 0.00 | 86 | 1007.9 |
| 20260506044839 | 25 | 140 | 3.2 | 14.5 | 0.00 | 0.00 | 0.00 | 86 | 1007.9 |
| 20260506044337 | 25 | 192 | 3.2 | 6.4 | 0.00 | 0.00 | 0.00 | 86 | 1007.8 |
| 20260506043834 | 25 | 144 | 3.2 | 6.4 | 0.00 | 0.00 | 0.00 | 86 | 1007.8 |
| 20260506043331 | 25 | 98 | 1.6 | 4.8 | 0.00 | 0.00 | 0.00 | 86 | 1007.6 |
| 20260506042829 | 25 | 100 | 0.0 | 8.0 | 0.00 | 0.00 | 0.00 | 86 | 1007.8 |
| 20260506042328 | 25 | 72 | 4.8 | 9.7 | 0.00 | 0.00 | 0.00 | 86 | 1007.9 |
| 20260506041826 | 25 | 132 | 1.6 | 3.2 | 0.00 | 0.00 | 0.00 | 86 | 1007.8 |
| 20260506041323 | 25 | 118 | 1.6 | 3.2 | 0.00 | 0.00 | 0.00 | 85 | 1007.6 |
| 20260506040820 | 25 | 176 | 3.2 | 3.2 | 0.00 | 0.00 | 0.00 | 85 | 1007.6 |
| 20260506040317 | 25 | 177 | 3.2 | 6.4 | 0.00 | 0.00 | 0.00 | 85 | 1007.6 |
| 20260506035814 | 25 | 122 | 4.8 | 6.4 | 0.00 | 0.00 | 0.00 | 85 | 1007.6 |
| 20260506035311 | 25 | 140 | 3.2 | 6.4 | 0.00 | 0.00 | 0.00 | 85 | 1007.5 |
| 20260506034808 | 25 | 121 | 1.6 | 6.4 | 0.00 | 0.00 | 0.00 | 84 | 1007.6 |
| 20260506034305 | 25 | 68 | 1.6 | 4.8 | 0.00 | 0.00 | 0.00 | 84 | 1007.2 |
| 20260506033802 | 25 | 191 | 3.2 | 3.2 | 0.00 | 0.00 | 0.00 | 84 | 1007.2 |
| 20260506033259 | 25 | 132 | 3.2 | 4.8 | 0.00 | 0.00 | 0.00 | 83 | 1007.0 |
| 20260506032756 | 25 | 128 | 3.2 | 4.8 | 0.00 | 0.00 | 0.00 | 83 | 1007.2 |
| 20260506032253 | 25 | 80 | 3.2 | 4.8 | 0.00 | 0.00 | 0.00 | 83 | 1007.3 |
| 20260506031749 | 25 | 134 | 1.6 | 3.2 | 0.00 | 0.00 | 0.00 | 82 | 1007.2 |
| 20260506031247 | 25 | 120 | 0.0 | 6.4 | 0.00 | 0.00 | 0.00 | 82 | 1007.2 |
| 20260506030745 | 25 | 111 | 1.6 | 4.8 | 0.00 | 0.00 | 0.00 | 81 | 1007.0 |
| 20260506030242 | 25 | 133 | 4.8 | 9.7 | 0.00 | 0.00 | 0.00 | 81 | 1006.9 |
| 20260506025739 | 25 | 158 | 3.2 | 8.0 | 0.00 | 0.00 | 0.00 | 81 | 1006.7 |
| 20260506025235 | 25 | 132 | 3.2 | 6.4 | 0.00 | 0.00 | 0.00 | 80 | 1006.7 |
| 20260506024732 | 25 | 102 | 0.0 | 4.8 | 0.00 | 0.00 | 0.00 | 80 | 1006.7 |
| 20260506024229 | 25 | 140 | 3.2 | 6.4 | 0.00 | 0.00 | 0.00 | 80 | 1006.6 |
| 20260506023725 | 26 | 120 | 1.6 | 3.2 | 0.00 | 0.00 | 0.00 | 79 | 1006.6 |
| 20260506023223 | 26 | 114 | 3.2 | 3.2 | 0.00 | 0.00 | 0.00 | 79 | 1006.5 |
| 20260506022719 | 26 | 98 | 0.0 | 3.2 | 0.00 | 0.00 | 0.00 | 79 | 1006.5 |
| 20260506022217 | 26 | 124 | 3.2 | 6.4 | 0.00 | 0.00 | 0.00 | 79 | 1006.4 |
| 20260506021715 | 26 | 156 | 0.0 | 4.8 | 0.00 | 0.00 | 0.00 | 79 | 1006.3 |
| 20260506021212 | 26 | 141 | 0.0 | 4.8 | 0.00 | 0.00 | 0.00 | 78 | 1006.0 |
| 20260506020708 | 26 | 131 | 1.6 | 6.4 | 0.00 | 0.00 | 0.00 | 78 | 1006.0 |
| 20260506020206 | 26 | 135 | 1.6 | 4.8 | 0.00 | 0.00 | 0.00 | 78 | 1006.0 |
| 20260506015704 | 26 | 139 | 0.0 | 4.8 | 0.00 | 0.00 | 0.00 | 78 | 1006.0 |
| 20260506015201 | 26 | 145 | 3.2 | 6.4 | 0.00 | 0.00 | 0.00 | 77 | 1005.8 |
| 20260506014658 | 26 | 117 | 3.2 | 3.2 | 0.00 | 0.00 | 0.00 | 77 | 1005.8 |
| 20260506014154 | 26 | 131 | 0.0 | 4.8 | 0.00 | 0.00 | 0.00 | 76 | 1005.7 |
| 20260506013652 | 26 | 133 | 3.2 | 4.8 | 0.00 | 0.00 | 0.00 | 76 | 1005.5 |
| 20260506013149 | 26 | 113 | 0.0 | 3.2 | 0.00 | 0.00 | 0.00 | 75 | 1005.6 |
| 20260506012645 | 26 | 133 | 3.2 | 3.2 | 0.00 | 0.00 | 0.00 | 75 | 1005.6 |
| 20260506012142 | 26 | 137 | 3.2 | 6.4 | 0.00 | 0.00 | 0.00 | 75 | 1005.5 |
| 20260506011639 | 27 | 132 | 4.8 | 8.0 | 0.00 | 0.00 | 0.00 | 75 | 1005.5 |
| 20260506011135 | 27 | 112 | 3.2 | 4.8 | 0.00 | 0.00 | 0.00 | 74 | 1005.4 |
| 20260506010634 | 27 | 138 | 3.2 | 4.8 | 0.00 | 0.00 | 0.00 | 73 | 1005.5 |
| 20260506010131 | 27 | 134 | 1.6 | 4.8 | 0.00 | 0.00 | 0.00 | 73 | 1005.7 |
| 20260506005628 | 27 | 158 | 1.6 | 4.8 | 0.00 | 0.00 | 0.00 | 72 | 1005.4 |
| 20260506005124 | 27 | 198 | 1.6 | 8.0 | 0.00 | 0.00 | 0.00 | 72 | 1005.6 |
| 20260506004621 | 27 | 127 | 3.2 | 3.2 | 0.00 | 0.00 | 0.00 | 71 | 1005.6 |
| 20260506004118 | 27 | 184 | 1.6 | 6.4 | 0.00 | 0.00 | 0.00 | 71 | 1005.8 |
| 20260506003614 | 27 | 134 | 3.2 | 4.8 | 0.00 | 0.00 | 0.00 | 70 | 1005.6 |
| 20260506003110 | 28 | 119 | 3.2 | 3.2 | 0.00 | 0.00 | 0.00 | 70 | 1005.7 |
| 20260506002606 | 28 | 126 | 1.6 | 3.2 | 0.00 | 0.00 | 0.00 | 70 | 1005.8 |
| 20260506002102 | 28 | 146 | 4.8 | 4.8 | 0.00 | 0.00 | 0.00 | 69 | 1005.6 |
| 20260506001559 | 28 | 132 | 3.2 | 3.2 | 0.00 | 0.00 | 0.00 | 69 | 1005.6 |
| 20260506001056 | 28 | 175 | 0.0 | 4.8 | 0.00 | 0.00 | 0.00 | 69 | 1005.5 |
| 20260506000553 | 28 | 125 | 3.2 | 4.8 | 0.00 | 0.00 | 0.00 | 69 | 1005.6 |
| 20260506000051 | 28 | 145 | 9.7 | 9.7 | 0.00 | 0.00 | 0.00 | 68 | 1005.6 |
| 20260505235549 | 28 | 192 | 3.2 | 4.8 | 0.00 | 0.00 | 0.00 | 68 | 1005.7 |
| 20260505235045 | 28 | 135 | 3.2 | 4.8 | 0.00 | 0.00 | 0.00 | 68 | 1005.6 |
| 20260505234542 | 28 | 192 | 1.6 | 4.8 | 0.00 | 0.00 | 0.00 | 68 | 1005.3 |
| 20260505234039 | 28 | 144 | 3.2 | 4.8 | 0.00 | 0.00 | 0.00 | 67 | 1005.3 |
| 20260505233536 | 28 | 148 | 4.8 | 11.3 | 0.00 | 0.00 | 0.00 | 66 | 1005.2 |
| 20260505233034 | 28 | 123 | 4.8 | 11.3 | 0.00 | 0.00 | 0.00 | 67 | 1005.3 |
| 20260505232531 | 28 | 84 | 3.2 | 6.4 | 0.00 | 0.00 | 0.00 | 66 | 1005.3 |
| 20260505232029 | 28 | 187 | 3.2 | 8.0 | 0.00 | 0.00 | 0.00 | 66 | 1005.2 |
| 20260505231526 | 28 | 134 | 3.2 | 9.7 | 0.00 | 0.00 | 0.00 | 66 | 1005.3 |
| 20260505231025 | 29 | 114 | 4.8 | 6.4 | 0.00 | 0.00 | 0.00 | 66 | 1005.1 |
| 20260505230521 | 29 | 137 | 6.4 | 8.0 | 0.00 | 0.00 | 0.00 | 65 | 1005.4 |
| 20260505230018 | 29 | 155 | 4.8 | 6.4 | 0.00 | 0.00 | 0.00 | 65 | 1005.2 |
| 20260505225515 | 28 | 142 | 4.8 | 6.4 | 0.00 | 0.00 | 0.00 | 65 | 1005.4 |
| 20260505225011 | 29 | 158 | 4.8 | 16.1 | 0.00 | 0.00 | 0.00 | 65 | 1005.1 |
| 20260505224508 | 29 | 150 | 4.8 | 8.0 | 0.00 | 0.00 | 0.00 | 65 | 1005.1 |
| 20260505224005 | 29 | 231 | 3.2 | 8.0 | 0.00 | 0.00 | 0.00 | 64 | 1005.2 |
| 20260505223502 | 29 | 128 | 3.2 | 6.4 | 0.00 | 0.00 | 0.00 | 65 | 1005.2 |
| 20260505222958 | 30 | 132 | 6.4 | 12.9 | 0.00 | 0.00 | 0.00 | 63 | 1005.2 |
| 20260505222454 | 30 | 227 | 6.4 | 12.9 | 0.00 | 0.00 | 0.00 | 63 | 1005.0 |
| 20260505221950 | 30 | 145 | 1.6 | 8.0 | 0.00 | 0.00 | 0.00 | 64 | 1005.1 |
| 20260505221448 | 30 | 210 | 1.6 | 6.4 | 0.00 | 0.00 | 0.00 | 64 | 1005.0 |
| 20260505220945 | 30 | 119 | 3.2 | 14.5 | 0.00 | 0.00 | 0.00 | 63 | 1005.1 |
| 20260505220442 | 30 | 166 | 4.8 | 8.0 | 0.00 | 0.00 | 0.00 | 63 | 1005.2 |
| 20260505215939 | 30 | 169 | 4.8 | 8.0 | 0.00 | 0.00 | 0.00 | 62 | 1005.2 |
| 20260505215437 | 30 | 235 | 6.4 | 6.4 | 0.00 | 0.00 | 0.00 | 62 | 1004.9 |
| 20260505214935 | 30 | 133 | 1.6 | 6.4 | 0.00 | 0.00 | 0.00 | 61 | 1005.3 |
| 20260505214432 | 31 | 198 | 3.2 | 6.4 | 0.00 | 0.00 | 0.00 | 60 | 1005.2 |
| 20260505213929 | 30 | 193 | 3.2 | 12.9 | 0.00 | 0.00 | 0.00 | 61 | 1005.3 |
| 20260505213427 | 30 | 52 | 1.6 | 16.1 | 0.00 | 0.00 | 0.00 | 60 | 1005.5 |
| 20260505212923 | 30 | 140 | 6.4 | 12.9 | 0.00 | 0.00 | 0.00 | 59 | 1005.5 |
| 20260505212420 | 30 | 217 | 3.2 | 14.5 | 0.00 | 0.00 | 0.00 | 59 | 1005.4 |
| 20260505211916 | 31 | 216 | 6.4 | 8.0 | 0.00 | 0.00 | 0.00 | 60 | 1005.8 |
| 20260505211414 | 30 | 208 | 3.2 | 6.4 | 0.00 | 0.00 | 0.00 | 60 | 1005.7 |
| 20260505210910 | 30 | 150 | 4.8 | 14.5 | 0.00 | 0.00 | 0.00 | 59 | 1005.7 |
| 20260505210408 | 31 | 176 | 4.8 | 9.7 | 0.00 | 0.00 | 0.00 | 58 | 1005.8 |
| 20260505205905 | 31 | 108 | 3.2 | 9.7 | 0.00 | 0.00 | 0.00 | 59 | 1005.6 |
| 20260505205403 | 31 | 146 | 6.4 | 11.3 | 0.00 | 0.00 | 0.00 | 60 | 1005.8 |
| 20260505204859 | 30 | 189 | 4.8 | 12.9 | 0.00 | 0.00 | 0.00 | 60 | 1005.7 |
| 20260505204357 | 30 | 202 | 6.4 | 9.7 | 0.00 | 0.00 | 0.00 | 58 | 1005.9 |
| 20260505203855 | 31 | 197 | 6.4 | 11.3 | 0.00 | 0.00 | 0.00 | 59 | 1006.0 |
| 20260505203350 | 31 | 153 | 8.0 | 8.0 | 0.00 | 0.00 | 0.00 | 59 | 1006.0 |
| 20260505202847 | 30 | 41 | 3.2 | 11.3 | 0.00 | 0.00 | 0.00 | 63 | 1006.1 |
| 20260505202343 | 30 | 113 | 4.8 | 11.3 | 0.00 | 0.00 | 0.00 | 60 | 1006.2 |
| 20260505201840 | 30 | 154 | 3.2 | 6.4 | 0.00 | 0.00 | 0.00 | 61 | 1006.4 |
| 20260505201337 | 30 | 166 | 3.2 | 11.3 | 0.00 | 0.00 | 0.00 | 62 | 1006.4 |
| 20260505200836 | 30 | 132 | 6.4 | 12.9 | 0.00 | 0.00 | 0.00 | 61 | 1006.7 |
| 20260505200332 | 30 | 190 | 6.4 | 12.9 | 0.00 | 0.00 | 0.00 | 61 | 1006.7 |
| 20260505195827 | 30 | 176 | 3.2 | 8.0 | 0.00 | 0.00 | 0.00 | 61 | 1006.8 |
| 20260505195325 | 30 | 120 | 3.2 | 6.4 | 0.00 | 0.00 | 0.00 | 64 | 1006.7 |
| 20260505194822 | 30 | 224 | 4.8 | 17.7 | 0.00 | 0.00 | 0.00 | 62 | 1006.8 |
| 20260505194319 | 29 | 210 | 4.8 | 8.0 | 0.00 | 0.00 | 0.00 | 64 | 1006.9 |
| 20260505193814 | 30 | 133 | 4.8 | 9.7 | 0.00 | 0.00 | 0.00 | 63 | 1006.8 |
| 20260505193313 | 30 | 139 | 3.2 | 8.0 | 0.00 | 0.00 | 0.00 | 63 | 1007.0 |
| 20260505192810 | 30 | 193 | 4.8 | 6.4 | 0.00 | 0.00 | 0.00 | 63 | 1006.8 |
| 20260505192310 | 29 | 150 | 8.0 | 14.5 | 0.00 | 0.00 | 0.00 | 64 | 1006.9 |
| 20260505191805 | 29 | 97 | 3.2 | 17.7 | 0.00 | 0.00 | 0.00 | 64 | 1007.2 |
| 20260505191304 | 29 | 189 | 0.0 | 9.7 | 0.00 | 0.00 | 0.00 | 64 | 1007.3 |
| 20260505190800 | 28 | 173 | 1.6 | 6.4 | 0.00 | 0.00 | 0.00 | 66 | 1007.2 |
| 20260505190255 | 28 | 209 | 3.2 | 12.9 | 0.00 | 0.00 | 0.00 | 64 | 1007.1 |
| 20260505185752 | 28 | 237 | 8.0 | 9.7 | 0.00 | 0.00 | 0.00 | 65 | 1007.3 |
| 20260505185248 | 28 | 159 | 8.0 | 9.7 | 0.00 | 0.00 | 0.00 | 64 | 1007.3 |
| 20260505184744 | 28 | 173 | 3.2 | 14.5 | 0.00 | 0.00 | 0.00 | 65 | 1007.3 |
| 20260505184242 | 28 | 245 | 8.0 | 9.7 | 0.00 | 0.00 | 0.00 | 66 | 1007.5 |
| 20260505183738 | 28 | 158 | 8.0 | 9.7 | 0.00 | 0.00 | 0.00 | 66 | 1007.4 |
| 20260505183236 | 28 | 204 | 3.2 | 9.7 | 0.00 | 0.00 | 0.00 | 68 | 1007.5 |
| 20260505182732 | 27 | 213 | 1.6 | 9.7 | 0.00 | 0.00 | 0.00 | 67 | 1007.6 |
| 20260505182229 | 27 | 211 | 4.8 | 8.0 | 0.00 | 0.00 | 0.00 | 70 | 1007.7 |
| 20260505181725 | 27 | 191 | 3.2 | 3.2 | 0.00 | 0.00 | 0.00 | 70 | 1007.9 |
| 20260505181223 | 27 | 174 | 0.0 | 6.4 | 0.00 | 0.00 | 0.00 | 69 | 1007.8 |
| 20260505180720 | 27 | 217 | 6.4 | 9.7 | 0.00 | 0.00 | 0.00 | 70 | 1008.1 |
| 20260505180216 | 27 | 163 | 3.2 | 8.0 | 0.00 | 0.00 | 0.00 | 70 | 1008.0 |
| 20260505175712 | 27 | 183 | 3.2 | 6.4 | 0.00 | 0.00 | 0.00 | 72 | 1008.1 |
| 20260505175209 | 26 | 196 | 4.8 | 8.0 | 0.00 | 0.00 | 0.00 | 73 | 1008.1 |
| 20260505174705 | 26 | 210 | 1.6 | 16.1 | 0.00 | 0.00 | 0.00 | 73 | 1008.3 |
| 20260505174202 | 26 | 184 | 3.2 | 6.4 | 0.00 | 0.00 | 0.00 | 74 | 1008.4 |
| 20260505173658 | 25 | 178 | 3.2 | 6.4 | 0.00 | 0.00 | 0.00 | 75 | 1008.4 |
| 20260505173155 | 25 | 169 | 4.8 | 9.7 | 0.00 | 0.00 | 0.00 | 75 | 1008.5 |
| 20260505172653 | 25 | 201 | 3.2 | 8.0 | 0.00 | 0.00 | 0.00 | 76 | 1008.5 |
| 20260505172149 | 25 | 218 | 3.2 | 6.4 | 0.00 | 0.00 | 0.00 | 77 | 1008.4 |
| 20260505171649 | 25 | 225 | 9.7 | 9.7 | 0.00 | 0.00 | 0.00 | 77 | 1008.4 |
| 20260505171147 | 25 | 180 | 6.4 | 16.1 | 0.00 | 0.00 | 0.00 | 77 | 1008.6 |
| 20260505170644 | 24 | 110 | 3.2 | 9.7 | 0.00 | 0.00 | 0.00 | 78 | 1008.6 |
| 20260505170140 | 24 | 134 | 8.0 | 8.0 | 0.00 | 0.00 | 0.00 | 78 | 1008.7 |
| 20260505165640 | 24 | 194 | 4.8 | 8.0 | 0.00 | 0.00 | 0.00 | 78 | 1008.7 |
| 20260505165137 | 24 | 230 | 3.2 | 11.3 | 0.00 | 0.00 | 0.00 | 79 | 1008.7 |
| 20260505164632 | 24 | 160 | 8.0 | 12.9 | 0.00 | 0.00 | 0.00 | 78 | 1008.6 |
| 20260505164130 | 23 | 169 | 6.4 | 17.7 | 0.00 | 0.00 | 0.00 | 80 | 1008.5 |
| 20260505163628 | 23 | 145 | 8.0 | 9.7 | 0.00 | 0.00 | 0.00 | 80 | 1008.7 |
| 20260505163126 | 23 | 161 | 3.2 | 4.8 | 0.00 | 0.00 | 0.00 | 81 | 1008.4 |
| 20260505162623 | 23 | 174 | 3.2 | 9.7 | 0.00 | 0.00 | 0.00 | 81 | 1008.6 |
| 20260505162120 | 23 | 187 | 4.8 | 8.0 | 0.00 | 0.00 | 0.00 | 81 | 1008.5 |
| 20260505161617 | 23 | 129 | 1.6 | 6.4 | 0.00 | 0.00 | 0.00 | 82 | 1008.5 |
| 20260505161115 | 23 | 144 | 6.4 | 11.3 | 0.00 | 0.00 | 0.00 | 82 | 1008.4 |
| 20260505160612 | 23 | 163 | 6.4 | 9.7 | 0.00 | 0.00 | 0.00 | 82 | 1008.6 |